Theta_e
328 321 317 317 319 314 309 302 295 294 292 290 288 289 291 294 295 295 296 297 296 298 299 300 299 301 300 297 297 297 296 296 295 290 293 300 313 320 324 326 333 337 336 339 343 345 346 346 350 352 353 353 353 353 353 353 352 351 351 350 349 349 349 349 349 349 349 350 349 349 349 349 348 348 348 348 348 348 348 348 348 348 348 348 348 348 348 347 346 345 343 342 340 339 338 337 335
321 318 317 319 316 308 303 299 291 287 286 285 288 289 292 292 294 294 294 294 296 300 298 299 299 301 300 300 298 299 300 300 297 302 302 315 318 320 322 330 336 336 337 340 343 345 345 346 348 351 353 353 354 353 352 352 352 351 350 350 349 349 349 349 349 350 350 349 349 350 349 349 348 348 348 349 348 347 348 348 348 347 348 347 348 347 346 346 344 343 343 341 339 337 336 335 334
323 320 319 314 309 307 303 298 294 285 282 283 285 289 292 293 294 294 294 296 298 297 298 299 300 301 301 300 300 298 296 302 304 314 313 318 314 315 325 329 336 337 337 340 343 344 345 345 346 351 353 353 353 353 352 352 351 350 350 350 349 349 349 349 349 350 350 350 350 349 349 349 349 348 348 348 348 348 348 347 347 347 347 347 347 347 346 345 343 342 341 340 338 335 334 333 332
321 319 318 307 305 302 296 293 289 286 286 282 285 289 292 292 293 293 296 295 296 297 299 303 302 302 300 296 300 301 298 303 308 313 311 314 313 314 327 333 333 337 338 340 343 344 344 344 345 350 353 353 353 353 352 352 351 350 350 349 349 349 349 349 349 350 350 349 350 349 349 349 349 349 349 348 348 347 347 347 346 347 347 347 346 345 344 343 341 342 340 339 336 333 332 331 330
316 320 318 306 300 298 296 293 288 285 287 285 285 289 290 291 295 294 296 295 296 298 299 300 298 301 302 302 300 299 297 302 305 311 313 313 317 319 328 332 336 336 337 339 342 343 343 343 345 349 352 353 352 352 352 352 351 350 350 349 349 349 348 349 349 349 349 349 350 349 349 349 349 349 348 347 346 347 347 346 346 346 346 344 344 343 342 340 339 339 338 337 335 332 330 329 329
314 313 314 306 302 302 293 288 287 288 289 288 288 289 291 291 295 296 297 297 300 298 299 298 300 301 301 301 300 300 299 301 305 315 314 315 322 326 327 333 336 336 336 339 341 342 342 342 344 348 352 353 352 352 352 352 351 350 350 350 349 349 349 349 349 349 349 349 350 349 349 349 348 348 348 347 346 347 346 346 345 343 342 343 343 340 338 337 337 337 336 335 333 330 328 327 326
313 308 307 301 301 297 290 286 285 287 293 291 289 290 292 292 295 297 296 299 300 300 300 302 299 299 297 299 303 303 306 307 310 312 316 318 323 327 325 332 335 335 336 338 340 341 341 342 346 349 350 351 351 352 352 352 351 350 350 350 349 349 349 349 349 349 349 349 349 349 349 349 348 347 347 346 346 345 345 344 343 341 340 340 339 338 337 338 336 335 334 333 331 329 327 325 325
313 306 302 294 293 294 290 287 287 287 294 293 293 291 292 294 295 297 297 297 298 300 300 299 299 298 298 299 299 300 305 318 317 319 318 324 326 325 324 330 334 334 335 336 339 340 339 341 345 348 350 351 351 351 352 352 351 350 350 349 349 349 349 349 349 349 348 349 349 349 350 348 348 347 346 346 345 345 344 343 342 341 340 339 337 337 337 337 336 335 334 331 329 326 325 324 325
310 308 301 295 292 290 287 290 291 292 292 292 293 296 301 295 296 296 297 297 298 299 298 300 298 297 295 297 298 299 305 313 318 321 321 322 327 325 325 326 334 333 334 335 338 338 339 339 343 347 348 350 350 352 352 351 351 350 350 350 350 349 349 348 349 349 350 349 349 349 349 348 348 347 346 346 345 344 343 343 342 341 340 338 337 335 336 336 336 335 333 330 328 325 324 324 324
308 299 295 294 293 290 286 286 289 293 292 294 293 296 297 296 296 297 297 297 299 298 298 298 298 300 298 298 298 302 306 314 317 319 321 322 324 324 324 322 332 333 333 334 336 338 340 337 341 344 346 349 350 351 351 351 351 351 350 350 349 349 349 349 349 350 350 350 349 349 348 347 348 346 346 346 344 343 343 342 341 340 339 339 336 335 334 334 334 334 331 329 326 325 323 324 323
300 299 298 290 286 285 287 288 287 290 291 292 294 297 295 297 297 296 296 297 296 299 299 300 300 298 297 298 298 302 309 313 316 316 319 321 322 323 323 320 325 333 333 333 335 337 339 340 337 341 343 345 347 349 350 349 350 350 349 349 349 349 349 349 349 349 350 350 350 348 348 347 347 346 345 344 343 342 342 341 340 338 337 336 335 335 333 332 332 332 330 328 326 325 324 322 321
295 296 293 286 286 287 285 288 289 290 292 291 297 296 296 299 297 296 297 297 295 294 297 299 300 298 296 295 298 301 307 309 313 313 317 317 321 322 321 320 320 328 332 333 334 336 337 339 339 338 340 342 343 346 347 348 349 349 349 349 349 349 349 349 349 348 349 349 349 349 348 347 346 345 344 343 342 342 341 339 338 337 335 334 333 333 332 332 331 331 329 326 324 324 323 321 319
298 294 290 288 288 288 288 288 287 293 287 292 295 298 297 298 299 297 295 294 293 295 296 299 300 299 296 297 296 302 307 309 309 309 312 319 321 319 319 321 320 327 329 332 334 335 335 338 340 340 339 337 338 340 342 344 345 347 348 349 348 347 347 348 348 348 348 348 348 347 347 346 345 344 344 343 343 342 340 338 337 336 335 334 333 333 332 332 331 329 327 325 323 323 322 321 319
299 298 292 291 287 287 289 288 287 290 289 292 293 295 296 298 297 295 293 295 293 296 298 300 300 298 296 295 292 295 300 302 310 312 316 320 319 320 319 320 320 322 326 332 334 334 334 336 338 340 341 340 342 338 336 339 342 345 345 345 345 345 345 346 346 345 346 346 345 343 342 341 341 342 342 341 341 340 339 338 338 335 335 334 333 333 332 331 330 329 326 324 323 323 321 320 319
300 298 290 288 287 286 288 292 291 287 292 293 296 298 296 298 298 295 297 295 295 296 302 300 301 298 291 296 290 294 300 306 311 314 314 317 319 320 320 320 320 321 324 331 332 333 334 335 337 338 339 342 343 343 344 340 337 340 342 342 342 343 343 342 342 342 341 341 341 339 338 336 334 336 336 336 338 335 333 332 336 336 334 334 333 332 332 330 329 328 326 325 323 322 321 318 317
300 295 291 291 286 287 287 290 289 286 291 294 294 296 296 296 298 299 298 298 298 300 300 299 302 299 295 297 299 297 299 309 311 314 316 317 317 318 318 320 320 320 321 325 329 331 333 334 335 336 339 341 343 344 344 344 335 334 338 340 339 340 340 339 339 339 335 333 333 333 331 331 330 332 327 331 330 333 330 328 332 335 334 333 332 332 331 330 329 327 326 325 323 321 319 316 315
299 293 291 285 286 287 289 291 290 289 292 291 292 295 296 295 296 297 299 298 299 297 298 297 301 301 298 299 302 303 307 312 314 315 315 315 315 316 317 318 318 319 322 321 325 329 331 333 334 335 337 339 342 343 344 344 342 332 334 334 334 335 336 335 336 332 328 326 327 326 325 333 332 332 330 331 323 329 322 323 329 333 335 334 333 331 330 329 328 327 326 325 323 320 316 314 314
295 292 286 287 285 289 290 291 292 294 294 293 294 294 296 292 294 296 299 298 295 295 296 296 297 298 299 299 306 308 309 313 313 315 312 312 312 312 313 315 315 322 321 323 321 326 330 332 333 335 336 338 340 341 343 344 343 335 341 339 336 335 332 330 333 335 329 332 326 327 330 328 330 330 330 326 327 325 323 321 324 329 333 332 331 332 330 329 328 327 326 325 322 318 312 297 299
294 290 288 286 286 291 293 294 295 294 293 293 294 292 294 295 296 296 297 292 292 294 296 296 296 297 299 300 303 307 310 310 312 312 313 312 313 315 315 316 317 316 319 320 323 324 328 331 332 333 334 336 338 339 342 342 342 340 341 341 338 333 332 332 334 332 332 331 328 327 326 327 328 328 327 325 325 320 323 320 323 327 331 330 329 330 330 329 328 326 326 324 321 315 298 294 292
296 292 289 287 291 293 294 295 297 295 296 295 294 295 295 296 296 297 296 293 292 293 296 297 296 297 296 297 297 307 308 309 310 310 311 311 313 315 314 314 317 319 321 323 325 325 326 329 330 333 333 334 336 338 340 341 341 340 341 340 339 337 335 333 334 332 331 329 328 327 326 326 327 327 323 320 320 322 322 319 321 323 324 324 323 324 327 328 327 326 325 323 313 301 293 295 292
296 294 289 291 292 294 296 295 295 295 295 295 294 293 294 295 295 297 295 294 295 295 296 297 299 300 299 297 295 304 306 307 308 308 308 308 309 311 313 314 317 321 322 321 319 324 325 327 328 331 332 333 334 337 338 340 340 340 340 339 339 337 336 335 335 333 331 329 328 327 326 326 325 325 323 322 321 320 318 318 319 319 318 317 319 316 316 317 318 312 313 308 298 297 294 293 292
297 295 295 294 294 294 297 297 297 296 294 294 292 293 295 295 297 295 295 293 295 297 298 297 299 300 300 299 297 300 304 305 307 308 308 308 308 309 310 310 310 311 313 318 321 323 325 327 327 330 331 332 333 336 337 338 338 339 338 338 338 337 336 335 333 332 330 328 327 327 325 324 324 323 321 320 319 317 315 314 315 314 313 315 312 313 310 312 310 308 307 303 299 297 296 295 293
294 293 295 295 296 296 296 297 296 293 295 294 293 295 296 296 296 296 296 296 299 301 300 300 299 300 301 298 298 298 298 302 303 305 308 308 307 307 309 311 310 310 312 317 319 322 324 326 327 326 329 331 332 333 336 337 338 339 339 338 337 335 336 334 332 331 330 327 325 325 325 324 323 322 320 319 317 315 315 313 313 312 313 312 310 312 310 309 307 306 303 303 298 296 294 294 294
297 294 292 296 296 297 297 298 295 292 293 294 295 294 294 294 294 295 295 299 299 301 301 299 300 300 299 298 298 298 299 298 299 302 305 307 307 308 308 309 311 310 310 314 316 319 321 325 327 325 327 330 332 333 335 336 336 337 337 335 336 334 333 333 332 331 328 326 324 324 324 324 322 321 319 318 317 314 314 313 313 310 312 311 310 311 310 306 305 304 303 299 298 294 293 293 294
295 294 292 294 294 295 295 292 292 293 294 294 294 293 296 294 295 295 297 299 301 301 300 299 299 297 297 296 298 298 297 297 297 298 298 299 302 305 305 305 305 306 309 312 314 317 320 323 325 326 326 327 330 333 334 335 334 335 335 335 335 330 333 333 333 330 327 326 324 323 323 323 322 321 319 318 316 315 312 313 311 311 310 309 309 307 310 307 304 303 303 301 297 294 292 293 293
292 292 294 293 293 293 293 293 294 294 296 296 294 294 296 294 294 294 298 300 301 300 298 297 296 296 297 297 296 295 295 295 296 296 297 298 298 299 301 302 303 303 307 310 312 317 319 321 324 326 327 326 328 330 332 332 332 332 333 334 335 331 333 332 331 329 328 326 324 323 323 323 322 321 319 317 317 314 312 312 311 311 311 309 309 309 305 307 305 300 300 298 298 293 292 294 293
294 292 293 292 294 292 293 294 297 295 294 295 294 295 295 294 295 291 294 298 299 297 296 295 295 296 296 295 295 296 297 297 297 298 299 299 299 298 299 299 300 303 303 302 309 314 315 318 322 324 326 324 324 327 328 329 327 329 330 331 331 330 330 329 328 328 326 325 324 322 322 322 322 321 319 317 317 315 313 312 312 310 310 309 309 309 306 307 303 303 300 298 296 294 293 292 292
294 294 292 293 292 294 293 293 295 294 295 292 293 292 293 291 294 293 298 300 298 296 297 296 294 294 294 294 297 298 299 299 299 299 298 298 298 298 298 298 299 300 302 302 305 310 314 318 320 322 324 324 324 324 324 325 325 325 325 327 327 327 325 325 324 324 322 323 321 320 319 319 319 318 317 316 316 314 312 312 311 310 311 308 308 307 305 305 304 300 297 296 294 294 293 292 291
294 293 292 291 290 293 295 293 294 295 293 292 292 292 291 291 290 296 298 299 297 295 296 294 293 294 294 295 298 298 298 299 299 298 298 298 298 299 298 299 299 299 301 303 303 310 315 317 320 320 322 321 323 324 323 323 323 323 322 324 324 323 323 323 323 322 322 321 320 320 319 318 317 317 315 315 313 312 312 311 310 310 310 309 307 306 304 302 299 296 294 293 292 292 291 291 291
295 292 291 290 289 289 295 294 293 293 292 291 293 285 285 288 294 296 298 296 295 294 295 294 293 293 294 297 298 298 298 298 297 298 298 298 299 299 298 300 301 300 301 304 305 306 309 314 317 318 318 320 320 321 320 320 320 321 320 320 320 321 321 321 321 321 321 320 319 319 318 317 316 316 315 312 312 311 310 310 310 309 308 307 307 305 304 301 299 296 295 293 294 293 291 290 290
291 290 291 286 285 284 291 293 292 292 293 290 294 286 285 289 292 294 294 294 293 293 294 293 294 294 296 296 296 296 296 297 297 298 298 298 299 299 299 300 300 301 304 306 308 308 310 309 314 318 315 315 316 317 318 318 315 318 318 318 319 319 319 319 318 319 319 319 318 318 317 316 315 315 314 314 312 310 310 309 308 309 307 306 306 304 305 299 299 297 293 294 290 290 290 290 290
287 287 283 282 285 285 289 294 293 291 292 291 292 285 287 292 293 295 295 293 293 292 294 292 294 296 296 296 295 295 295 296 296 297 298 298 298 298 298 298 300 300 301 303 306 307 308 310 311 311 311 313 313 313 313 315 315 314 315 316 318 316 317 318 316 317 318 316 317 317 316 315 314 313 313 313 312 310 310 309 309 307 305 304 305 301 302 299 297 296 294 294 291 290 289 289 288
284 287 281 282 283 284 288 292 292 293 292 293 291 287 286 289 291 293 293 293 293 292 293 292 295 295 295 294 294 293 294 294 295 296 296 297 298 298 298 298 299 300 300 301 302 304 305 306 309 311 311 311 312 312 312 312 313 314 314 315 315 314 314 315 314 314 315 315 315 315 314 315 314 312 311 311 312 310 309 308 306 306 304 304 303 300 300 299 296 296 293 292 293 292 290 289 288
283 284 285 284 285 285 285 290 293 291 291 290 290 288 287 291 291 294 295 293 292 293 293 292 294 294 293 293 293 292 292 293 293 294 295 296 297 297 298 298 298 299 300 300 301 301 302 303 305 308 311 312 312 312 312 313 313 314 314 314 313 314 313 314 314 314 314 313 313 313 313 313 313 311 311 310 310 310 309 308 305 304 302 302 301 298 299 295 295 296 294 291 291 291 289 289 288
281 283 283 285 285 285 287 286 289 293 290 290 288 288 288 290 292 293 295 294 292 292 291 293 294 293 293 292 292 292 292 292 292 294 294 295 295 296 296 297 297 298 299 300 300 300 301 301 302 303 307 310 311 312 312 313 313 314 313 313 313 312 312 312 313 313 312 313 313 312 313 313 312 311 310 310 310 308 306 305 304 302 301 300 299 298 294 293 293 293 295 291 289 289 289 289 289
288 288 287 285 284 285 287 289 290 292 290 290 289 291 291 290 291 293 294 294 292 292 292 294 293 292 292 292 291 291 291 292 293 294 294 295 295 295 295 296 296 297 297 298 299 299 299 300 301 301 302 306 309 309 311 312 312 311 312 311 312 311 311 311 311 310 310 310 310 311 311 312 312 311 309 308 308 306 305 302 303 300 300 299 298 296 293 292 293 292 291 292 290 288 288 287 286
288 287 287 285 285 286 287 289 292 291 290 287 289 287 286 290 292 292 293 292 293 291 292 292 292 291 291 291 291 291 291 291 293 293 294 294 294 294 295 295 295 296 296 297 297 297 298 298 299 298 300 302 304 305 304 306 307 307 308 307 306 306 308 309 310 310 309 308 308 308 308 307 307 307 306 305 304 303 302 301 301 300 299 299 298 298 297 295 294 294 292 290 290 288 287 286 286
287 286 284 285 284 286 288 290 290 291 290 285 284 287 289 290 291 292 293 292 291 291 291 291 291 291 291 290 290 290 291 292 292 292 293 293 293 293 294 294 294 293 294 295 295 296 296 297 297 298 298 299 300 302 302 302 302 303 305 305 306 305 307 307 308 308 307 307 306 306 306 306 306 305 304 304 303 304 302 301 301 301 299 299 298 298 297 296 294 292 290 289 288 289 288 287 288
287 285 285 284 286 286 289 290 290 290 291 287 284 287 288 290 289 292 291 291 291 291 291 290 290 290 290 290 290 289 290 290 291 291 292 292 292 293 293 293 293 293 293 294 294 295 295 296 296 297 297 297 298 299 300 300 300 300 301 300 301 301 300 301 302 302 305 306 304 304 305 305 306 306 305 304 305 303 302 300 299 298 299 298 298 297 297 295 294 293 290 291 288 286 286 287 288
286 286 284 284 286 286 283 286 288 289 289 287 286 285 287 288 290 290 291 291 290 291 291 290 290 289 289 289 289 289 289 289 289 289 289 290 291 291 292 292 292 293 293 293 293 294 294 294 295 295 296 296 297 297 298 298 298 298 298 299 299 299 297 297 298 299 300 301 302 301 302 301 302 302 301 302 302 301 300 299 296 296 297 297 298 297 295 295 294 292 291 291 290 288 286 287 288
285 287 287 286 285 285 286 285 287 287 287 287 285 285 284 286 287 287 289 291 290 290 290 290 290 290 290 289 289 289 288 288 287 288 288 288 289 289 290 291 292 292 292 292 292 293 294 293 294 294 295 295 295 296 297 297 298 298 298 298 298 297 298 297 296 296 296 297 299 299 298 295 296 297 296 296 296 296 295 296 296 295 296 296 297 298 297 297 295 295 293 292 291 292 290 287 287
284 285 289 289 288 287 286 286 286 284 283 284 285 278 276 281 284 287 288 288 287 288 288 288 288 289 288 288 288 288 288 288 287 286 287 287 288 288 289 289 290 290 291 292 292 293 293 293 293 294 294 294 294 294 295 296 295 295 295 294 294 293 293 293 293 292 293 294 294 295 297 297 297 298 296 297 296 295 296 294 293 294 294 295 296 297 296 296 295 294 293 293 292 292 293 290 287
285 287 288 289 287 286 285 285 285 279 279 284 285 280 275 280 285 286 286 285 286 287 286 287 287 287 287 287 287 287 286 286 287 286 286 286 286 287 287 288 288 288 289 291 292 292 292 293 293 293 293 293 294 294 294 294 294 294 293 292 292 292 291 291 291 292 292 293 294 293 294 295 295 296 296 296 295 295 295 294 293 292 292 291 292 293 294 294 295 294 294 293 293 293 291 290 289
284 285 286 286 286 286 285 284 285 281 281 283 284 284 277 275 284 287 287 285 285 285 286 286 286 286 286 286 286 286 286 285 285 285 285 285 286 286 286 287 287 288 288 289 290 290 291 291 291 292 292 292 292 293 293 293 292 292 292 291 291 291 290 290 291 292 292 292 292 292 293 293 293 293 294 294 294 294 295 295 294 293 292 291 290 290 291 291 292 292 292 292 292 292 291 290 290
285 287 286 285 286 285 284 286 282 281 282 279 279 283 280 276 282 286 286 284 283 284 285 285 286 286 286 286 286 286 286 285 285 285 285 285 285 285 286 286 287 288 288 288 288 289 290 290 290 290 290 291 291 291 292 292 292 291 291 291 290 290 291 290 291 291 291 291 291 291 291 291 292 292 292 292 292 292 292 293 293 293 293 292 290 291 289 289 289 289 289 289 289 290 290 291 290
288 287 287 285 285 284 284 282 283 280 280 275 280 282 278 278 281 284 285 285 283 284 285 285 285 285 284 285 285 285 285 285 285 285 285 285 285 285 285 286 286 287 287 288 287 288 288 289 289 288 288 289 290 290 290 290 291 291 290 289 289 289 289 289 289 289 289 289 289 289 290 290 290 290 291 291 291 291 291 291 292 292 292 292 291 289 288 288 289 287 288 287 288 288 288 288 288
288 286 285 284 282 281 280 279 278 277 273 278 282 282 283 276 281 283 284 285 284 285 284 284 284 284 284 284 284 284 284 284 284 284 285 285 285 285 285 285 285 286 286 286 286 286 286 287 287 287 287 288 288 288 288 288 289 289 289 288 288 287 288 287 287 287 287 287 287 287 288 288 288 288 289 289 290 290 290 290 290 291 291 291 291 291 291 290 290 289 289 286 286 287 287 287 288
286 284 282 284 282 278 277 273 276 273 271 276 278 281 282 276 277 281 284 284 286 287 284 283 283 283 283 284 284 284 284 284 284 285 285 285 285 285 285 285 285 285 285 285 285 285 285 286 286 286 286 287 287 287 287 287 287 288 288 287 287 287 287 287 286 286 286 286 286 286 286 287 287 287 287 287 288 288 289 289 289 289 290 290 291 291 291 290 290 289 289 288 288 287 286 287 286
285 282 282 277 274 274 274 273 273 272 275 278 279 281 280 281 282 284 283 283 284 286 286 285 284 284 283 284 285 285 286 286 286 285 285 285 285 285 284 284 284 284 285 285 284 284 284 285 285 285 285 286 286 286 286 286 286 286 286 287 287 287 286 286 286 285 286 285 285 285 285 285 286 286 286 286 287 287 287 287 288 288 288 289 289 289 290 290 290 289 290 289 288 287 288 287 286
283 284 279 276 273 272 267 269 269 271 275 278 281 282 281 281 283 283 283 283 284 286 286 285 284 284 284 284 284 284 285 285 285 284 283 283 283 284 284 283 283 283 283 283 284 284 284 284 284 284 284 285 285 286 286 285 285 286 286 286 286 286 286 285 285 285 285 285 286 285 284 284 284 285 286 286 287 287 287 287 287 287 287 288 288 288 288 289 289 288 288 288 288 289 287 286 286
284 282 285 281 273 268 268 268 273 274 275 277 279 278 273 278 281 281 283 283 284 285 285 284 284 284 283 283 283 282 282 283 283 282 282 281 282 282 282 282 282 282 282 283 283 283 283 283 283 283 283 284 285 285 285 285 285 286 286 286 285 285 285 285 285 286 285 285 285 285 285 285 284 285 285 286 286 286 286 286 286 286 287 287 287 287 288 288 287 287 287 287 287 287 287 286 286
283 281 282 279 280 279 276 269 269 270 274 274 275 278 277 280 282 283 283 283 283 283 283 284 283 283 282 282 282 282 282 283 283 282 281 281 282 282 282 283 283 283 283 284 284 284 284 284 283 283 283 283 284 284 284 284 284 285 285 285 285 285 285 285 286 286 286 286 286 286 285 285 285 285 286 286 285 285 285 285 286 285 286 286 286 285 286 286 286 286 286 286 286 287 286 286 286
283 284 279 281 283 284 274 273 275 274 271 275 272 279 281 282 282 282 282 282 282 282 282 282 282 282 281 281 282 281 282 281 281 281 280 281 282 282 283 283 284 285 285 285 285 285 284 284 283 284 284 284 284 284 285 286 286 286 285 286 286 285 285 285 285 286 286 286 286 286 286 286 286 286 287 287 286 286 286 286 285 286 286 286 285 285 285 284 284 285 286 286 286 287 286 286 286
284 280 283 284 284 282 279 273 269 265 270 272 273 276 277 279 274 280 280 279 280 280 280 281 281 280 281 282 281 281 281 281 281 281 281 282 282 283 284 284 283 284 285 286 286 286 286 286 285 285 285 285 286 286 286 286 286 286 286 286 286 286 285 285 285 285 285 285 285 285 285 285 285 286 285 286 285 285 285 285 285 285 285 285 285 285 285 285 285 285 285 285 285 285 285 286 286
284 282 284 285 277 276 277 271 269 268 267 267 273 275 277 279 279 278 279 279 280 280 280 280 281 281 281 281 281 281 281 281 281 281 282 282 283 284 285 285 286 286 287 287 287 287 287 287 286 286 285 286 286 287 286 286 286 287 286 285 284 284 284 284 285 285 285 285 285 285 285 285 285 285 285 284 284 284 284 284 284 284 284 284 284 285 285 285 285 285 285 285 285 285 284 284 286
285 286 285 283 280 275 274 279 272 272 266 268 267 272 276 279 281 281 283 282 281 281 280 281 282 282 282 281 281 281 282 282 283 284 284 285 285 285 286 286 286 286 287 287 287 287 286 286 286 285 286 285 285 286 286 285 286 286 286 285 285 285 284 284 284 284 284 284 284 284 284 284 284 284 284 284 284 283 283 283 283 283 283 284 284 284 284 284 284 284 284 285 285 285 285 284 285
283 283 280 283 281 281 280 279 276 274 268 269 272 273 274 278 281 282 284 284 283 282 282 282 282 282 282 283 283 283 283 284 285 285 286 286 286 285 286 285 286 285 286 286 286 285 286 285 285 285 285 284 284 284 284 284 284 284 284 283 283 282 281 281 282 283 283 283 283 284 283 283 283 284 283 283 283 283 283 283 283 283 283 283 283 283 283 283 283 283 283 284 284 285 285 285 285
284 285 282 284 280 277 276 276 280 274 277 272 274 274 280 282 285 283 283 283 283 283 282 282 282 284 284 284 285 285 285 286 286 286 286 286 286 286 285 285 284 284 283 284 285 284 284 285 284 284 283 283 283 283 283 283 282 282 282 281 280 280 280 281 280 280 281 281 282 282 282 282 283 283 284 283 282 282 282 282 282 282 283 283 283 283 283 282 282 282 282 283 283 283 283 284 284
Wind_Speed
6 6 6 4 1 1 1 5 1 3 4 1 1 1 1 1 1 1 0 2 0 2 2 0 1 2 1 1 2 2 3 3 5 3 1 2 2 2 5 4 5 9 11 9 9 9 11 13 16 18 18 17 16 17 16 15 16 15 14 14 14 14 14 14 14 14 14 13 13 12 12 11 10 10 10 9 8 8 8 7 7 8 9 10 10 10 10 11 11 10 10 10 9 9 9 8 8
4 5 4 3 0 2 1 2 3 2 6 4 0 0 1 2 1 3 2 2 2 1 2 1 0 0 3 2 1 1 2 6 7 1 2 2 3 1 5 5 8 12 9 9 9 9 9 10 15 16 17 18 17 18 18 16 16 16 15 14 14 14 15 15 14 14 14 13 13 12 12 12 12 11 11 10 9 8 8 8 8 9 9 9 9 8 9 10 9 8 8 9 8 8 8 7 7
4 6 5 4 3 4 1 4 1 2 5 2 2 2 2 0 0 3 5 5 4 3 1 0 0 0 1 2 1 2 1 1 0 1 0 3 2 4 5 4 7 9 11 9 9 10 9 10 14 15 16 16 17 18 18 18 17 16 16 15 15 15 14 15 14 14 13 13 13 13 12 12 12 12 11 11 10 10 9 8 8 9 9 9 9 9 9 10 8 7 6 7 8 7 7 7 7
2 1 2 3 1 4 1 3 4 4 2 3 1 2 0 2 2 4 5 6 3 1 0 0 0 1 1 1 1 1 1 0 3 4 0 3 7 5 6 6 6 6 7 8 9 9 9 10 15 14 15 15 16 16 17 17 17 17 16 15 16 15 15 14 14 13 13 14 13 12 12 12 12 12 12 12 11 10 10 10 10 10 10 10 8 8 9 7 6 7 7 6 7 7 6 7 6
5 3 2 4 3 3 1 1 3 2 2 4 2 3 2 3 2 4 2 3 2 0 1 1 0 1 2 1 0 0 2 2 3 4 1 3 1 5 7 7 7 7 8 8 9 9 8 13 15 14 15 16 17 15 15 15 16 17 15 15 16 16 15 15 15 14 13 13 12 12 12 12 13 13 13 12 11 11 11 11 10 10 9 7 6 7 6 6 5 4 5 5 5 6 6 6 6
3 4 3 2 1 2 5 2 2 1 5 5 1 2 3 6 2 2 2 1 0 1 1 1 0 0 1 1 3 0 2 1 1 1 3 5 5 6 8 8 8 8 7 7 8 8 8 13 14 15 16 16 18 15 14 14 15 16 15 16 16 16 15 15 14 14 13 13 13 12 12 12 13 13 13 12 12 12 11 11 10 7 3 6 9 5 3 3 4 5 3 4 5 6 5 5 5
2 4 3 4 2 4 4 2 1 2 6 6 2 2 5 4 5 2 2 1 1 1 1 0 1 1 1 2 1 2 1 2 1 1 5 1 5 6 8 8 8 8 8 8 8 8 8 13 15 15 15 16 17 15 15 15 16 15 15 16 16 16 16 15 15 14 13 13 13 13 13 13 12 13 13 12 12 11 11 9 8 6 6 6 4 3 2 7 3 4 3 5 5 6 5 4 5
1 1 2 3 1 3 2 1 3 4 2 4 2 3 4 4 3 1 0 1 1 1 1 1 0 2 2 3 0 2 2 2 3 6 1 4 6 6 7 8 8 7 8 7 8 7 10 15 15 15 15 16 16 16 15 16 17 15 14 15 15 15 15 15 15 13 14 13 13 14 14 14 14 13 13 12 12 12 11 9 8 7 6 4 3 4 5 6 8 6 5 5 6 5 4 4 4
3 1 0 5 2 2 3 1 3 3 6 3 3 4 4 4 2 2 1 0 1 0 2 1 1 2 2 5 2 2 2 2 2 2 3 4 7 7 7 9 10 8 9 8 8 7 9 14 16 16 15 16 16 16 16 18 17 16 14 14 14 14 14 14 14 12 11 13 13 13 14 14 13 14 14 13 12 11 11 10 8 7 6 5 4 4 4 5 6 7 6 6 5 4 4 4 4
1 3 2 2 2 2 2 1 2 1 2 3 2 2 1 2 1 2 1 2 0 1 2 2 1 1 1 4 4 2 0 1 0 3 1 2 4 4 6 7 10 12 9 9 9 9 9 13 16 16 16 16 16 16 17 17 17 16 15 14 15 14 12 12 11 10 10 11 11 12 14 14 14 14 15 14 12 11 11 10 8 7 6 5 3 5 4 4 4 7 6 5 5 4 4 4 4
1 5 2 2 5 1 1 4 3 5 4 5 4 4 4 1 3 1 0 1 1 0 2 2 1 2 1 3 3 2 2 0 2 5 4 3 2 5 5 5 6 11 11 10 9 9 9 11 16 15 15 16 15 16 16 16 16 16 15 14 14 13 12 12 11 10 9 9 10 13 13 14 13 14 13 12 12 11 10 9 8 7 6 6 6 7 5 4 4 5 5 5 5 4 4 4 4
2 2 3 2 1 2 3 2 5 7 8 3 1 3 0 0 1 1 1 3 1 2 2 2 1 3 0 1 2 2 2 2 5 3 4 2 4 4 4 4 5 6 9 10 9 9 9 9 11 13 16 15 14 15 15 15 16 15 15 15 14 13 12 12 10 9 9 9 9 11 13 14 13 14 12 12 11 11 11 9 8 8 7 4 2 5 5 5 5 5 5 5 4 4 3 4 4
4 0 4 3 1 1 1 1 5 2 3 1 1 1 1 1 0 1 1 1 0 2 4 5 1 1 1 1 4 4 1 8 6 4 4 4 4 2 1 2 3 5 5 8 10 9 9 9 10 10 12 15 14 15 15 15 15 15 15 15 14 13 12 11 11 10 9 9 9 11 12 11 11 12 11 10 10 10 11 10 9 9 8 6 6 6 6 6 6 6 5 4 4 4 4 4 5
2 2 3 1 0 0 1 2 3 2 2 2 2 3 2 0 1 3 3 1 2 0 3 5 1 2 3 2 6 3 6 4 3 2 1 2 0 0 2 1 2 4 4 6 9 9 9 9 10 9 10 11 10 12 14 14 15 15 15 15 14 14 13 12 11 11 10 9 9 10 11 11 11 11 11 10 10 10 10 9 8 9 9 8 7 7 8 7 7 7 5 4 4 4 4 4 5
0 1 3 2 1 1 2 0 1 2 1 1 2 0 2 3 0 1 1 1 5 4 1 1 2 2 3 1 5 2 4 3 4 1 3 1 1 0 1 1 1 4 4 5 6 7 8 8 9 9 10 10 10 9 9 12 15 15 15 15 14 14 14 13 12 11 11 10 10 10 10 10 9 12 10 11 10 9 9 9 9 9 10 10 9 8 8 8 8 8 6 5 5 5 4 4 5
3 4 3 1 1 0 2 1 1 2 2 0 4 2 1 4 0 0 3 2 2 1 1 3 0 3 2 2 8 5 4 2 2 3 4 3 1 0 1 2 0 1 4 4 5 5 7 8 8 8 9 10 10 9 10 10 12 14 15 15 14 14 14 13 12 12 12 12 11 11 10 8 8 9 12 10 10 10 10 8 9 8 10 10 10 9 9 9 9 8 7 6 6 5 5 5 5
3 4 0 3 2 1 2 1 2 2 5 2 6 3 1 2 2 2 0 1 3 5 0 2 3 0 3 6 2 1 1 3 4 4 4 2 2 1 1 2 2 1 3 4 4 5 6 8 9 8 9 10 10 10 9 10 11 13 12 14 15 14 13 13 12 13 12 11 11 10 9 7 6 6 9 7 9 7 9 10 9 9 9 9 8 9 9 9 9 8 7 7 6 6 5 5 3
2 1 3 1 3 1 4 4 3 0 1 4 5 1 1 3 3 3 2 2 1 5 6 4 3 5 4 2 2 2 3 5 4 6 3 4 1 4 3 5 3 7 5 6 4 5 7 7 9 9 8 10 9 8 7 7 8 11 10 9 9 11 11 11 10 8 9 7 10 9 7 6 6 6 6 7 6 7 8 10 9 8 9 8 8 8 9 9 9 9 8 7 7 6 5 2 1
2 1 1 5 4 5 4 3 2 0 4 4 4 3 2 4 0 2 1 4 3 6 8 3 5 7 9 9 3 2 4 4 5 6 7 7 6 8 8 6 6 4 6 6 6 7 8 8 7 9 9 9 9 9 7 7 8 8 9 9 9 10 8 9 7 8 7 7 7 7 6 6 6 6 6 7 6 9 9 10 10 9 9 9 8 8 8 9 9 8 8 7 7 5 2 1 1
2 4 2 5 7 4 5 4 6 4 2 4 5 2 1 4 0 0 1 5 4 7 10 10 7 8 5 7 3 1 4 5 4 6 8 9 8 9 7 7 8 9 9 9 10 7 7 8 9 10 10 10 10 9 7 7 7 8 7 7 7 7 7 7 7 6 6 6 7 6 6 6 6 6 7 11 9 7 7 10 10 10 9 9 9 6 7 8 10 9 8 7 5 3 1 0 1
2 2 4 4 4 2 5 4 5 4 3 3 4 3 6 6 3 0 0 5 7 8 8 9 13 15 9 5 6 2 4 4 5 5 7 8 8 7 9 10 12 11 9 5 4 8 9 9 8 9 9 10 10 9 9 8 7 7 7 6 7 7 7 7 6 6 6 6 6 6 6 5 5 5 5 5 5 5 5 5 5 4 4 4 7 5 4 5 5 4 3 6 3 2 1 0 1
4 7 5 5 1 1 8 7 7 2 3 3 5 6 6 3 2 1 2 4 11 8 9 7 11 11 10 8 6 3 5 6 8 7 10 11 12 12 10 8 6 4 3 5 11 9 9 9 9 9 8 9 10 10 10 9 9 7 8 8 7 7 7 7 6 6 6 6 6 6 6 6 5 5 5 5 5 5 5 5 5 4 4 5 3 6 4 5 5 4 5 5 3 2 1 0 0
3 3 3 5 5 5 2 1 2 4 5 5 5 3 2 2 7 3 5 9 9 10 9 9 9 10 10 5 3 4 5 7 7 10 11 11 11 12 11 10 8 9 8 11 9 7 7 7 8 6 8 8 9 8 8 7 8 8 8 7 8 7 7 7 6 6 6 6 6 6 7 5 5 5 5 5 5 5 5 5 6 5 5 5 3 6 5 4 5 5 5 5 3 3 1 1 2
4 6 1 6 4 7 7 5 6 5 4 6 3 4 5 3 11 0 4 11 10 13 9 8 10 9 7 7 7 7 7 7 9 11 11 13 13 14 14 12 10 5 4 10 8 8 8 11 9 7 8 8 8 8 8 8 7 7 8 7 8 7 7 7 7 6 6 7 7 6 7 7 7 6 6 6 5 5 5 5 5 5 4 4 4 5 6 3 5 5 4 3 4 3 3 3 3
4 4 3 4 1 4 5 5 6 7 8 6 3 5 11 3 6 6 16 16 13 11 5 7 7 6 6 5 9 7 6 7 8 7 5 6 7 9 8 7 5 4 7 10 9 7 10 9 8 10 8 9 8 7 8 7 7 7 6 7 7 7 7 7 7 6 6 6 6 7 7 7 6 6 7 6 5 6 5 5 5 5 5 5 5 4 5 5 5 5 5 4 4 3 3 3 3
3 4 0 2 3 5 6 7 7 7 6 2 4 10 11 6 4 5 18 16 15 5 3 5 6 7 8 6 5 6 6 7 7 8 5 6 7 7 7 5 3 5 7 5 3 9 8 6 9 11 10 9 8 7 7 6 6 7 7 7 7 6 6 6 6 6 6 6 6 6 7 7 7 7 7 6 7 6 5 5 5 5 6 5 5 6 5 5 6 4 4 4 4 4 3 4 3
1 2 2 4 7 5 3 5 11 6 4 3 4 12 11 2 3 7 5 11 9 3 5 4 4 7 8 6 8 8 11 10 9 6 12 11 12 10 9 9 7 5 3 4 2 4 3 4 7 8 8 6 6 8 7 7 6 6 6 5 5 6 5 5 5 5 5 6 6 6 6 6 6 6 7 7 6 6 6 6 6 5 5 5 6 6 5 5 5 6 6 5 4 5 5 4 5
1 2 5 5 6 6 5 6 14 3 6 3 7 7 5 3 1 9 12 13 5 5 8 5 3 4 5 6 8 6 9 7 7 11 13 13 10 9 9 10 10 8 3 3 4 3 3 5 5 5 7 6 7 7 6 7 7 7 5 5 5 5 5 5 5 5 5 6 5 6 6 6 6 5 6 6 7 6 6 6 6 6 6 5 5 6 6 5 5 5 4 4 4 4 6 4 4
1 3 6 7 6 7 8 7 5 2 5 2 6 1 7 1 5 13 13 8 7 7 10 5 4 1 4 8 9 10 9 8 9 11 9 6 6 7 9 8 8 7 5 4 3 2 5 5 6 5 4 5 7 7 7 5 5 5 6 6 5 5 6 6 6 6 6 6 6 6 7 6 6 7 6 7 6 7 6 6 6 6 6 6 5 5 5 4 4 4 3 2 3 3 3 4 3
2 1 0 8 4 7 13 0 1 1 4 5 5 3 7 8 11 12 10 6 6 9 10 5 4 6 8 8 9 9 10 11 12 9 8 8 7 9 10 10 8 6 7 7 7 6 3 1 1 1 3 5 5 4 4 5 5 5 5 6 6 6 6 6 6 6 6 6 6 6 6 6 7 6 7 6 6 6 6 6 6 6 5 5 5 5 6 5 6 5 4 4 4 4 5 4 4
3 2 1 4 4 6 7 0 1 5 1 4 3 4 7 10 11 11 9 2 3 7 8 6 6 8 8 7 8 9 10 8 9 10 10 10 9 8 9 11 12 11 9 11 10 6 8 6 2 3 2 3 3 3 4 4 3 5 4 5 6 6 6 6 6 6 6 6 6 6 6 6 6 6 6 7 6 6 6 6 6 6 6 5 6 6 6 6 6 6 6 6 3 4 4 4 4
1 2 5 3 4 7 10 8 3 2 2 3 5 2 8 9 11 11 9 4 0 5 6 6 8 8 8 7 8 8 8 8 9 11 12 11 11 10 11 12 11 13 12 9 10 10 12 9 7 6 5 4 3 3 3 4 4 4 4 4 4 4 5 5 5 6 6 6 6 6 6 6 6 6 6 6 7 6 7 7 7 5 5 6 6 5 5 6 6 6 6 7 6 5 4 6 4
3 3 4 4 1 5 8 5 1 4 2 1 4 6 3 5 7 9 6 4 7 6 6 6 8 8 8 7 7 6 7 10 11 12 13 11 11 10 10 11 12 11 11 12 12 11 12 11 11 10 8 6 5 5 5 4 5 5 4 5 4 3 3 3 3 3 4 5 5 5 5 5 5 6 6 6 7 6 6 6 6 6 5 6 6 6 6 6 7 6 5 6 7 7 7 6 5
4 0 5 4 4 2 3 9 4 3 2 1 1 2 6 7 10 13 14 5 6 8 6 6 8 8 7 7 8 8 9 10 12 12 13 12 10 11 10 10 11 11 11 12 11 11 10 9 9 9 8 8 8 7 7 7 6 7 6 6 6 6 5 4 4 4 4 3 4 5 4 4 5 5 5 5 6 6 6 6 5 5 5 5 6 6 6 5 5 7 7 5 6 5 6 7 6
5 2 2 6 2 4 8 2 3 7 2 2 4 5 8 10 10 11 11 6 4 5 4 8 8 7 7 8 8 8 9 11 10 9 10 11 11 10 10 11 11 12 11 12 13 11 11 11 10 12 10 9 8 8 7 7 7 7 7 8 8 7 7 6 5 5 3 3 3 4 5 5 6 5 5 5 6 6 5 4 5 5 5 5 5 5 4 4 4 4 6 6 3 4 5 5 6
7 7 6 2 4 5 5 5 5 1 5 7 6 10 10 9 9 10 7 5 4 4 8 8 7 7 7 8 8 8 8 9 6 7 8 9 9 10 10 9 10 10 11 12 14 14 13 12 10 12 11 8 8 8 7 7 7 8 8 7 9 7 7 7 7 6 6 6 5 4 2 2 2 3 3 2 3 4 4 4 4 3 4 5 5 5 5 5 7 6 6 6 6 3 1 3 3
2 1 1 6 5 6 4 4 8 1 3 4 5 4 4 9 10 7 8 6 10 5 9 7 6 7 8 8 7 8 9 7 4 6 7 8 10 10 9 9 9 12 13 13 14 13 13 11 13 13 9 10 9 9 8 7 7 5 7 7 5 5 5 6 7 6 6 5 6 6 5 5 4 4 3 2 2 2 1 1 1 2 2 3 5 6 7 8 7 7 5 3 6 5 4 1 3
4 4 4 8 4 9 5 5 2 4 1 3 1 3 8 10 6 7 6 11 12 7 7 8 8 8 7 7 7 7 5 4 6 10 10 10 11 11 10 10 12 15 13 13 13 11 11 13 13 10 10 10 10 7 6 7 5 5 6 5 6 6 7 8 7 6 6 6 6 6 5 5 5 5 5 5 4 2 1 1 1 3 3 4 4 2 2 2 2 3 3 3 1 5 5 5 4
1 4 4 4 8 3 9 7 2 2 0 6 2 3 7 10 4 6 10 10 7 8 6 4 7 7 6 7 6 6 7 7 8 9 10 10 11 11 10 10 10 10 11 12 11 13 13 12 11 11 11 10 10 9 8 6 5 5 6 4 5 5 4 4 5 4 5 7 7 6 7 7 7 6 6 5 4 4 3 2 2 2 1 1 2 3 3 4 4 5 5 6 4 1 3 1 5
2 3 1 8 3 1 6 4 3 3 1 3 2 4 8 3 7 9 7 6 7 7 9 9 7 9 8 7 5 5 7 7 10 9 9 9 9 9 10 11 11 11 12 13 12 12 11 11 11 12 11 11 11 10 9 6 6 5 7 7 8 9 5 6 7 8 8 7 7 6 6 6 6 6 7 7 6 6 5 4 2 1 1 1 2 3 2 4 2 3 4 5 3 4 3 5 5
3 5 7 5 3 4 7 5 2 3 2 1 3 4 6 3 3 3 3 5 7 6 7 7 7 7 6 5 7 7 7 7 8 8 9 9 11 12 11 11 10 12 12 12 11 10 8 11 11 11 11 10 10 11 11 9 10 10 8 9 9 10 12 11 11 10 9 8 8 8 7 4 4 5 5 5 5 4 4 4 3 2 1 1 1 2 3 4 4 4 4 4 5 6 6 4 3
3 6 10 8 5 5 4 2 4 7 4 2 2 5 3 2 2 4 4 2 5 3 6 7 6 6 5 7 7 6 7 6 6 7 8 8 9 9 12 12 13 11 12 10 9 10 11 11 12 12 11 11 11 11 11 11 11 11 11 11 10 9 10 10 10 8 9 9 7 6 10 10 9 7 6 6 6 5 5 4 4 3 3 2 1 2 3 3 3 3 5 6 6 6 6 5 5
0 7 7 7 5 3 2 0 2 2 2 1 2 1 7 7 5 5 2 4 5 3 5 5 5 5 5 5 5 5 6 6 7 8 8 9 9 10 12 12 11 12 10 8 9 11 12 11 11 12 11 10 11 11 12 10 11 10 10 9 8 7 7 6 4 6 7 7 9 11 9 11 11 11 10 9 9 7 6 5 5 4 3 2 2 2 3 4 3 3 2 3 6 5 3 6 6
5 2 4 5 5 2 1 2 2 4 1 5 1 3 4 4 9 4 6 6 4 4 4 4 4 4 4 4 4 5 6 4 5 7 7 7 8 9 11 9 9 9 7 8 9 10 12 11 11 11 10 11 11 10 12 11 11 9 10 10 9 9 8 6 7 7 7 8 11 10 9 9 11 11 11 11 11 10 10 9 7 5 5 3 2 3 4 4 4 4 2 3 4 4 4 6 7
4 3 6 3 3 2 2 1 2 1 1 7 4 0 1 4 7 1 7 5 3 3 3 3 3 3 3 4 5 5 5 5 4 6 7 7 8 9 8 9 7 9 9 10 9 9 9 10 11 12 13 12 11 13 12 12 11 10 10 9 10 7 7 7 6 8 9 8 11 10 10 9 10 10 10 11 11 11 10 9 8 8 7 6 4 4 3 3 4 5 5 4 4 5 5 6 6
2 5 4 4 4 3 2 2 1 1 1 6 5 3 3 7 5 3 0 2 5 6 5 4 3 3 3 3 4 5 4 5 5 5 5 6 6 7 6 6 9 8 7 8 8 8 9 9 11 14 14 11 10 12 12 13 12 11 13 12 12 10 8 8 9 10 9 8 10 10 9 9 9 10 10 11 11 11 10 10 9 9 8 7 6 4 4 4 4 4 4 4 4 5 4 4 6
4 5 2 3 6 2 3 5 2 2 3 7 9 8 7 5 4 6 6 5 3 8 3 3 3 3 3 3 3 3 4 4 4 4 5 5 4 6 6 9 7 8 7 7 8 7 6 9 10 14 11 10 11 11 12 12 11 11 11 12 12 12 11 11 12 12 10 11 10 10 9 8 8 8 8 9 10 10 10 9 9 8 8 8 8 7 6 5 5 4 4 4 4 5 6 5 5
4 2 2 4 3 6 3 3 4 1 7 6 3 7 4 6 5 3 2 6 4 15 14 11 9 5 4 3 3 3 3 3 3 4 4 4 6 7 6 8 7 6 6 7 7 7 8 8 9 13 12 11 11 11 13 12 11 11 11 11 12 10 10 9 11 11 10 10 9 9 8 9 10 8 9 9 9 9 8 9 9 9 9 8 9 7 7 6 6 5 5 5 5 4 4 5 5
5 5 6 3 4 5 2 2 1 5 6 2 1 5 2 9 6 3 6 6 6 1 10 14 12 8 5 4 3 3 2 2 3 3 3 4 5 5 6 5 6 7 8 8 8 7 8 9 10 14 12 10 10 10 12 11 12 11 11 11 10 9 10 10 9 9 7 8 8 9 10 9 8 10 10 10 11 10 8 9 9 8 8 8 8 8 7 7 6 6 6 6 6 5 6 5 6
6 5 5 5 1 2 4 5 2 5 6 4 3 1 3 3 2 4 4 4 3 6 8 7 8 9 7 5 4 3 2 1 2 3 3 3 3 3 4 6 6 6 6 7 7 8 7 8 9 12 9 8 7 9 9 11 11 9 9 9 8 7 8 8 7 8 7 6 6 7 7 7 7 7 7 8 7 8 8 8 7 7 6 7 7 7 7 6 6 6 5 6 6 6 5 5 6
8 3 9 8 8 5 4 3 5 5 5 2 4 1 5 3 1 4 3 3 3 6 8 6 5 6 5 4 4 3 2 1 1 2 3 3 3 3 4 5 6 5 5 6 6 6 7 8 8 9 9 8 8 8 8 10 8 8 8 8 7 6 6 6 5 5 5 6 6 6 6 6 7 6 7 6 7 7 7 7 8 8 8 8 7 7 7 6 5 6 5 5 6 5 6 6 6
1 3 5 5 6 4 4 4 2 2 3 4 2 5 1 2 0 1 2 3 5 4 7 7 7 4 4 4 4 4 3 3 3 3 4 4 3 3 4 5 5 4 5 5 6 5 7 6 6 7 7 6 6 7 7 6 6 5 5 6 6 5 5 4 4 4 4 4 4 5 4 3 4 4 5 5 6 6 7 7 7 7 7 7 7 6 6 7 7 7 6 5 6 4 5 7 7
3 4 4 6 3 4 1 2 1 2 2 9 2 5 0 0 1 1 1 4 2 3 4 5 5 4 4 5 4 4 4 3 3 4 4 4 3 3 4 4 4 5 5 6 6 6 7 6 7 7 6 6 7 7 6 6 5 6 5 5 5 5 5 6 5 4 4 3 3 4 4 4 3 4 4 3 4 4 5 6 6 7 7 7 7 7 7 6 5 6 6 7 7 6 4 6 6
7 2 7 2 2 3 4 4 3 2 4 7 2 7 2 2 6 1 0 2 3 3 4 4 4 4 6 5 5 5 4 4 3 3 3 3 3 4 4 4 4 4 4 5 5 4 4 5 6 6 7 8 7 7 7 7 7 7 7 7 6 5 5 4 4 4 3 3 3 3 4 5 5 5 5 5 5 5 4 4 5 6 6 6 6 6 6 7 7 7 6 5 6 5 5 6 6
2 2 2 3 3 1 2 4 3 2 3 5 4 1 3 8 6 2 6 8 10 7 5 6 8 8 8 6 5 4 3 3 4 4 3 3 4 4 4 4 4 4 4 3 3 4 4 4 4 4 5 4 4 5 5 5 6 5 4 5 5 5 4 4 4 5 5 6 7 6 6 5 5 4 6 6 7 7 7 8 6 7 7 7 5 5 5 6 6 7 7 7 7 5 5 6 7
1 1 2 1 2 3 4 5 4 3 4 2 7 3 9 4 5 14 12 14 12 10 8 12 12 9 7 6 6 6 5 5 5 4 4 4 4 4 4 4 4 3 3 3 3 3 4 3 4 4 4 4 5 6 5 5 4 4 5 5 5 4 4 3 4 4 6 6 6 7 8 8 8 7 7 8 8 8 9 9 8 8 9 9 10 9 7 6 5 5 6 7 8 7 8 8 8
1 1 1 0 0 2 3 1 4 4 2 4 5 9 4 2 2 8 10 10 15 17 16 11 8 7 7 8 8 7 6 6 6 5 5 5 5 4 3 3 2 2 2 3 3 3 2 3 3 3 4 3 4 3 3 3 3 4 4 5 5 5 6 5 6 6 6 6 6 6 6 6 6 9 8 10 10 11 10 10 10 10 10 10 9 10 9 9 8 8 8 7 8 8 9 9 7
7 9 8 8 5 1 3 9 2 1 3 4 4 12 7 2 0 2 4 3 10 10 7 7 7 11 10 7 7 7 7 7 7 6 6 5 5 4 3 2 3 3 3 3 2 3 3 2 1 2 2 1 0 2 1 2 2 2 3 4 5 5 6 7 7 8 8 8 8 8 8 9 9 9 9 10 10 9 10 11 11 11 11 11 11 10 9 8 9 10 10 8 9 9 10 11 9
Wind_Direction
315 308 299 296 322 112 60 2 88 313 62 344 342 33 233 286 286 64 294 323 4 254 215 345 120 92 162 201 190 201 204 120 211 116 222 237 282 245 202 156 149 138 152 160 173 178 182 186 180 174 174 173 171 172 168 168 166 165 161 162 165 163 163 164 161 160 159 158 156 156 154 153 151 149 146 142 136 135 133 129 124 125 122 123 123 116 113 102 94 88 84 82 79 77 73 72 66
301 311 300 303 266 76 292 110 97 360 40 48 266 95 227 316 42 161 179 185 203 211 223 188 47 8 55 157 190 138 272 219 170 206 256 242 306 170 200 174 156 151 155 159 168 175 180 185 185 178 176 173 172 171 171 169 168 166 165 165 168 165 168 167 165 163 163 162 162 161 159 158 156 154 149 144 141 142 137 132 133 133 132 129 123 119 109 95 90 93 84 78 74 72 71 69 67
328 343 343 27 26 65 52 41 48 48 75 61 279 206 334 54 153 227 222 211 228 231 76 46 205 67 45 32 357 133 254 317 182 309 221 323 92 244 182 188 165 152 154 160 165 174 178 183 185 182 179 174 175 171 173 171 169 169 167 167 170 169 171 169 168 166 168 168 165 164 162 161 159 154 153 148 145 143 141 136 138 130 125 120 121 112 95 85 84 83 83 78 72 64 64 63 58
324 35 66 49 331 27 55 22 88 120 110 201 326 290 221 189 232 218 239 246 253 86 35 252 63 228 126 12 218 101 287 14 194 160 160 231 205 198 154 161 151 145 147 160 169 172 176 183 183 184 180 177 178 175 174 172 171 170 170 169 171 170 172 171 172 172 173 171 169 167 165 164 160 156 159 148 146 145 143 140 134 133 129 136 125 111 103 94 95 97 89 84 74 65 58 55 52
4 321 64 90 100 360 97 127 132 102 88 204 143 275 267 213 208 235 265 290 281 209 80 145 51 292 184 202 186 168 252 243 312 170 235 244 231 169 138 151 142 147 159 164 166 171 176 179 183 183 179 179 181 177 177 177 175 171 170 171 172 172 173 175 176 178 177 176 172 171 168 165 163 162 156 151 147 145 143 140 138 141 148 138 135 124 114 106 99 89 84 77 70 71 59 51 48
40 39 21 83 51 156 47 43 351 296 219 151 160 242 227 219 197 205 305 327 191 238 183 94 191 288 329 218 180 136 207 71 219 208 167 236 180 166 141 147 143 154 161 163 168 169 176 180 183 183 179 180 182 177 178 180 178 175 174 174 175 176 177 178 180 181 180 179 177 172 170 167 166 164 155 152 151 145 145 146 142 122 98 154 131 127 126 128 118 99 95 74 79 69 58 51 47
340 28 357 22 6 55 143 123 249 217 280 162 205 226 213 241 236 112 354 14 319 359 201 219 93 42 22 303 340 239 187 232 115 241 164 159 147 146 137 144 144 159 162 167 167 171 175 179 184 184 181 182 183 179 179 180 179 179 179 180 179 179 179 180 183 184 183 183 182 174 170 170 170 168 159 154 150 146 146 139 125 126 104 80 99 107 173 161 183 137 101 96 77 64 57 54 51
55 96 314 100 266 49 44 137 236 159 286 171 227 194 223 224 204 71 262 102 299 140 291 330 275 119 262 36 224 274 336 159 260 311 242 122 146 149 139 143 150 163 166 168 171 172 176 178 183 185 182 183 184 179 180 180 182 178 182 184 185 185 183 184 185 187 188 190 184 180 175 172 174 169 161 153 151 151 149 146 135 133 127 129 112 106 69 61 93 114 123 106 80 68 66 60 57
0 74 30 65 33 25 48 307 272 244 283 290 291 228 255 202 160 119 38 256 330 260 290 294 233 34 256 352 229 260 294 331 354 55 97 135 159 168 151 156 156 166 170 170 173 174 177 181 183 185 183 186 185 180 181 183 183 179 183 185 185 187 189 190 189 190 193 193 191 187 180 177 179 167 165 156 157 157 154 151 146 140 144 144 134 117 113 120 126 122 119 101 88 76 74 73 69
6 87 340 115 135 16 357 304 32 179 249 273 249 284 269 260 33 73 131 8 94 301 265 223 188 246 296 294 308 342 97 310 283 74 64 195 180 171 166 172 165 161 169 174 173 174 179 184 184 185 184 187 186 181 182 185 184 180 183 185 187 188 190 193 195 196 197 194 193 189 180 183 185 175 168 160 160 158 156 152 149 146 152 163 173 150 156 167 138 113 107 104 94 90 85 79 76
358 7 137 67 30 52 20 278 276 322 293 318 310 244 240 242 116 63 59 223 19 147 303 89 10 258 32 277 223 258 322 212 137 176 209 219 210 188 188 179 175 165 168 175 175 176 178 183 187 185 185 188 187 183 183 186 185 182 181 185 188 189 191 191 195 199 202 201 189 191 184 185 191 168 166 166 164 161 156 155 157 162 178 199 193 170 188 170 172 130 111 105 101 104 91 83 74
19 4 6 104 136 155 240 222 277 272 286 319 248 288 258 135 79 40 344 22 324 338 214 120 236 149 294 334 295 296 345 262 208 226 196 215 211 213 206 198 174 186 170 170 171 179 179 180 186 188 185 188 188 185 185 186 186 183 182 185 188 189 191 190 193 197 200 206 190 187 182 188 193 182 173 167 162 162 159 159 161 165 165 156 155 160 147 156 176 128 118 114 112 117 109 89 79
110 111 70 86 217 139 222 311 253 303 332 269 213 282 15 44 60 188 209 188 277 348 325 215 146 82 296 213 253 319 278 240 231 234 205 179 215 214 249 211 219 173 172 169 169 179 180 181 185 187 188 188 188 187 187 187 187 185 184 186 188 188 189 190 191 193 198 202 192 182 184 185 191 182 171 164 161 163 161 154 158 159 156 151 144 147 150 158 155 126 132 128 129 125 117 98 81
106 171 124 306 54 281 168 248 310 19 323 261 276 285 346 115 250 192 147 333 288 152 239 190 111 150 266 360 312 331 254 254 251 229 149 184 201 330 237 265 199 186 167 171 179 177 180 183 184 186 187 189 188 189 191 190 189 187 187 188 188 187 187 190 189 189 192 191 186 183 185 185 185 179 171 158 159 158 150 152 157 160 158 156 152 153 152 153 151 139 153 146 146 137 123 107 92
85 123 85 119 320 40 248 111 259 143 218 241 267 335 358 271 119 164 189 195 276 212 326 125 184 100 253 153 287 246 245 224 180 140 125 81 75 38 276 254 142 173 173 187 176 174 185 181 185 185 187 189 189 189 190 195 193 190 188 190 189 187 187 187 187 187 186 183 181 182 184 184 175 177 168 159 160 154 150 152 159 161 161 163 160 161 163 157 151 149 155 164 159 145 129 109 101
147 80 78 63 278 89 275 204 56 87 277 190 277 16 353 298 298 3 272 171 251 309 98 240 337 217 224 167 243 243 275 189 152 106 101 109 63 20 357 262 168 152 186 188 178 186 177 182 186 188 189 190 189 191 192 191 196 194 191 188 189 190 188 186 184 184 184 179 178 177 176 171 167 166 160 160 160 157 155 157 163 163 165 166 166 170 169 164 159 156 164 172 164 154 132 109 105
54 82 18 30 302 160 261 167 142 329 261 280 296 2 211 281 288 240 95 102 303 272 307 228 207 26 200 219 250 248 186 118 96 86 95 107 119 218 323 266 268 266 196 210 194 188 185 183 187 188 194 192 191 191 192 193 193 193 193 192 188 189 189 186 183 182 179 178 172 172 165 159 163 159 161 161 157 157 161 164 165 165 165 164 169 175 176 171 166 163 170 174 168 141 105 94 74
55 98 113 271 199 145 213 193 184 198 264 283 326 253 174 306 323 283 3 332 319 293 298 267 293 257 226 242 79 134 163 137 137 131 141 176 169 205 241 244 222 220 206 217 224 200 187 194 189 190 190 196 193 193 195 194 192 191 193 193 192 189 189 185 182 179 177 174 168 162 160 158 160 162 161 155 157 158 163 166 167 167 163 162 169 179 175 178 168 166 176 179 158 125 108 81 39
111 122 98 223 188 239 158 202 193 258 257 251 274 297 185 257 138 291 340 288 321 321 288 275 274 284 300 294 309 138 145 153 153 164 168 186 199 203 210 218 228 244 242 225 221 204 199 191 191 190 193 192 193 196 197 195 193 194 196 192 191 187 185 183 181 177 173 171 168 163 159 160 161 161 160 162 162 165 165 172 172 168 163 164 168 171 175 176 169 173 178 181 140 114 87 85 71
228 120 227 249 211 239 228 230 262 185 243 293 310 276 167 259 214 273 230 283 326 281 285 307 287 273 253 272 304 201 174 182 183 178 193 204 205 207 207 211 220 222 223 212 208 198 197 196 195 192 191 189 190 195 196 194 193 192 199 192 186 184 181 183 179 176 172 170 168 162 160 160 160 160 165 164 157 163 171 172 172 169 163 163 165 161 173 163 173 177 186 149 100 80 81 30 49
269 93 187 229 222 195 272 259 235 244 182 284 280 292 320 288 226 114 188 347 286 263 244 230 272 285 282 244 267 220 206 197 209 214 219 225 228 230 217 209 205 211 216 223 229 212 201 201 193 198 192 190 190 193 194 196 191 187 195 194 186 179 178 178 176 173 170 170 169 164 161 157 155 154 153 157 159 156 156 166 168 162 155 161 159 156 150 157 149 155 125 105 120 123 109 293 60
114 208 206 206 91 249 258 258 276 297 310 333 304 330 272 305 335 191 156 234 272 272 268 231 242 262 274 285 267 209 204 211 216 218 225 225 224 226 230 246 252 244 207 209 220 217 211 202 198 199 192 195 195 194 197 193 188 193 191 189 185 182 178 175 170 172 168 171 167 161 150 151 153 151 154 160 157 159 159 166 171 158 153 166 152 152 151 141 128 120 129 132 146 142 161 255 310
244 299 255 237 232 242 256 280 302 12 316 306 304 256 332 10 288 244 216 223 253 252 256 265 258 262 270 277 259 250 238 224 219 222 224 233 239 238 232 228 221 220 204 218 218 218 217 211 205 188 198 198 202 201 199 197 200 197 193 186 184 185 177 173 176 173 173 166 167 161 156 159 159 159 163 164 166 163 168 169 170 168 164 163 164 150 159 149 140 137 144 157 149 165 198 277 276
197 251 250 283 225 234 258 287 306 295 240 267 228 344 307 313 305 87 285 261 235 262 265 259 266 274 288 292 272 256 254 241 238 227 223 227 227 232 226 226 227 224 188 226 220 212 200 209 199 184 197 196 201 197 196 200 203 198 196 186 190 179 174 180 179 178 164 169 171 169 166 163 166 169 173 172 174 167 177 175 167 166 161 168 163 159 154 149 144 145 151 155 164 182 204 244 235
196 254 279 267 323 236 255 258 276 265 264 262 305 296 271 211 257 333 278 279 279 261 268 271 275 293 292 272 277 288 299 301 296 295 316 304 297 297 299 284 268 194 220 223 217 206 214 202 185 196 192 196 198 192 198 196 193 198 193 193 196 178 184 182 179 167 170 172 174 171 169 166 169 172 175 178 160 182 172 171 169 176 167 165 157 172 162 160 157 159 165 171 185 193 202 228 215
202 221 219 291 275 287 282 299 270 259 271 205 323 275 279 271 241 257 258 271 265 287 304 289 314 313 299 298 346 2 354 350 341 353 351 350 350 339 320 309 283 255 266 297 248 216 211 182 188 198 195 190 187 182 197 191 191 194 194 194 196 180 191 181 165 171 173 168 177 181 181 171 175 175 176 170 172 179 175 176 176 174 175 170 168 173 177 161 165 161 165 173 184 205 205 221 184
202 246 242 275 284 319 299 276 286 287 258 229 239 277 277 357 134 285 282 243 261 333 280 294 305 294 313 339 27 32 46 24 14 346 19 13 14 11 349 346 339 259 250 270 268 307 313 187 203 201 197 182 167 186 189 191 173 195 196 187 180 183 177 168 171 169 169 177 180 181 181 181 173 174 171 171 178 174 176 177 185 173 178 180 176 175 163 168 162 174 175 181 192 202 217 208 195
157 249 316 310 325 299 260 263 269 332 299 177 181 246 281 289 150 237 259 274 291 324 300 313 349 320 295 25 60 51 50 25 18 32 26 14 4 350 353 355 338 327 291 232 197 181 178 217 213 201 194 177 170 185 180 184 183 183 178 175 182 176 163 171 173 171 175 181 176 179 183 183 172 173 168 170 173 172 179 183 181 179 189 178 178 168 167 165 168 176 176 182 190 190 208 209 215
316 36 324 295 348 324 283 264 285 120 268 158 154 331 313 172 218 238 246 269 313 315 301 342 44 326 18 64 58 47 38 28 29 34 20 3 353 355 355 350 345 340 347 325 284 172 182 192 196 205 178 172 181 184 181 177 167 163 164 179 173 163 168 168 173 180 182 182 179 182 186 181 177 170 176 172 173 176 177 179 182 193 188 179 176 168 162 157 145 149 175 156 171 183 195 221 226
342 29 263 321 352 319 283 272 336 129 249 130 137 295 271 266 240 257 267 293 324 316 295 18 25 38 57 68 62 51 35 30 31 24 13 7 1 358 359 350 355 3 353 357 23 21 354 64 137 126 165 176 190 168 148 156 164 158 151 154 159 160 170 172 182 183 179 178 180 185 184 183 181 177 168 173 169 170 175 183 185 192 189 179 170 160 165 163 163 163 182 157 190 189 206 218 201
257 255 65 256 345 266 284 40 298 336 231 155 136 190 275 277 282 271 277 304 284 290 301 38 38 53 65 60 58 54 42 35 29 19 14 12 5 2 1 1 6 11 20 24 32 20 32 17 49 105 121 138 138 144 150 141 128 133 145 148 156 164 168 173 179 178 177 182 176 183 182 180 181 175 176 169 174 168 172 184 192 196 179 170 172 178 168 170 168 182 164 179 188 210 220 223 212
341 27 299 331 178 279 298 299 210 206 316 114 110 289 240 266 284 291 292 337 26 275 320 38 58 65 60 55 51 47 43 30 24 22 15 9 8 5 7 6 8 18 23 20 27 31 38 32 34 55 45 69 63 67 81 100 110 112 123 140 146 150 152 159 168 177 180 172 176 177 180 174 174 173 170 167 168 176 177 185 197 177 176 168 176 173 166 175 181 179 187 172 176 217 208 239 228
343 180 273 282 208 263 345 295 101 234 194 14 148 232 327 301 267 293 303 353 340 329 335 41 77 68 59 54 51 41 33 25 24 18 11 7 6 7 8 10 13 17 24 28 27 31 35 28 33 44 44 50 59 59 65 62 67 74 74 79 91 93 104 113 109 115 127 150 156 160 164 165 166 163 167 171 168 176 179 186 187 182 169 172 173 176 184 183 173 181 191 196 185 192 198 217 220
291 324 218 213 223 258 248 301 333 40 75 246 318 237 246 268 295 294 303 342 341 322 339 71 84 77 68 61 54 45 39 33 24 10 4 5 4 8 10 14 15 22 30 32 34 39 37 32 35 38 43 49 57 59 60 64 61 64 60 58 55 55 50 65 84 97 104 117 132 143 146 144 144 150 158 165 170 178 183 184 176 171 167 166 172 176 196 177 179 176 193 204 194 179 197 205 218
240 270 262 291 268 228 246 298 265 2 13 337 298 265 261 267 281 286 287 339 326 305 37 97 86 79 70 63 57 50 45 41 23 8 4 4 9 9 11 11 18 25 29 32 37 39 39 33 34 34 34 35 45 51 54 63 63 66 66 61 59 51 45 39 35 48 47 81 104 136 141 144 148 151 158 162 166 176 180 179 170 174 166 165 166 178 168 170 181 197 192 199 207 206 191 201 201
230 231 243 216 273 280 255 244 279 24 318 316 297 281 299 297 290 298 335 331 344 336 87 88 85 78 72 68 58 51 49 45 18 14 10 14 15 15 14 11 23 28 30 30 36 36 36 35 36 37 28 24 41 46 44 48 54 52 54 42 47 36 45 47 41 42 30 30 18 31 46 64 108 138 141 146 144 157 171 181 178 155 164 157 161 166 179 180 191 193 214 187 197 218 152 171 147
272 6 277 263 259 273 276 276 259 40 319 251 264 303 288 294 295 333 344 23 24 33 91 85 77 74 67 63 61 57 52 40 4 21 25 21 22 21 20 23 23 35 30 29 36 34 36 37 43 37 22 28 36 40 39 42 46 44 49 53 61 29 38 50 49 39 46 41 32 27 28 33 37 40 45 67 81 88 67 77 102 126 141 169 179 196 194 199 198 196 186 184 183 198 244 168 169
235 264 281 279 255 267 252 258 324 331 138 287 301 344 297 287 323 7 4 47 31 32 76 81 83 72 66 63 58 52 51 44 30 32 25 26 25 24 27 30 27 35 22 30 34 32 33 35 42 37 29 32 32 28 41 51 38 76 94 84 86 49 42 43 44 33 36 36 38 34 32 32 36 44 34 35 43 54 70 89 140 178 170 199 211 225 215 223 188 175 139 193 231 191 224 182 182
198 210 244 289 269 265 278 275 306 259 216 261 308 319 286 287 26 30 50 59 51 34 42 54 80 76 68 60 60 54 54 45 38 37 31 29 27 28 34 33 34 37 35 34 28 35 31 33 33 36 32 32 28 26 35 37 32 31 57 51 64 88 72 85 84 48 44 53 44 38 31 25 21 23 30 37 39 32 37 28 2 15 284 224 202 215 194 211 200 196 184 191 212 271 244 196 181
212 259 216 242 238 308 300 284 333 332 87 274 327 304 278 292 83 64 35 66 72 56 57 54 49 69 65 54 49 61 56 47 44 31 28 25 28 33 36 36 30 34 33 31 27 32 35 34 33 35 34 32 28 22 28 29 53 60 56 63 53 67 52 27 40 34 25 34 39 34 36 30 29 27 17 18 16 21 26 25 28 42 1 350 292 262 218 231 203 212 208 222 169 212 230 241 197
240 211 233 246 230 226 183 252 303 285 345 56 350 317 311 297 97 58 61 75 73 56 65 59 52 59 67 71 60 45 54 49 48 37 29 26 31 32 34 34 34 37 33 32 28 29 37 37 36 39 38 35 33 28 27 27 33 32 29 39 40 36 29 29 28 18 16 13 14 9 356 22 40 40 30 35 37 21 25 33 26 22 19 352 322 281 252 242 230 230 219 213 203 211 235 238 237
302 229 205 214 212 230 245 337 17 12 333 335 67 352 313 287 288 158 155 57 59 43 68 55 51 45 46 56 54 47 51 45 51 46 36 29 37 36 36 35 36 35 34 26 27 34 38 38 39 39 40 37 34 32 33 43 45 46 40 39 37 39 39 27 26 15 16 19 3 349 9 12 4 7 21 17 18 21 11 24 35 21 7 351 317 291 310 327 281 250 220 215 226 237 238 223 249
192 270 190 205 191 179 112 26 60 307 221 273 61 72 264 322 324 183 168 94 84 50 63 65 48 46 48 56 54 49 46 43 41 47 39 42 33 43 42 39 33 36 27 21 31 35 39 43 42 43 43 38 32 36 37 47 51 50 54 58 57 55 61 35 25 27 30 20 33 27 20 20 20 16 5 7 4 5 6 5 17 27 17 4 351 332 302 276 272 257 282 238 238 240 234 248 233
228 252 121 114 119 139 197 110 149 233 261 305 1 163 239 304 272 190 165 117 113 89 76 67 63 61 58 61 53 52 47 42 48 46 46 42 42 44 48 40 39 40 29 33 36 35 40 41 46 46 47 44 37 34 41 40 57 53 55 53 48 45 47 39 27 26 32 31 38 26 25 21 23 26 25 20 18 12 4 354 359 1 360 1 9 330 301 306 317 304 279 263 272 256 230 236 251
216 186 128 135 154 180 142 160 218 218 22 283 324 342 288 253 263 21 164 135 166 141 132 100 88 70 70 64 59 52 44 45 39 50 46 40 39 37 40 40 27 38 38 39 33 31 35 39 47 50 48 44 37 40 45 43 50 55 59 57 57 41 40 35 32 37 36 29 41 26 27 21 21 23 24 23 19 15 13 6 358 351 351 348 9 339 325 325 308 302 302 291 258 255 235 241 248
259 163 102 69 67 68 124 123 105 334 85 260 229 190 233 273 269 317 336 246 199 179 154 137 126 117 92 82 62 58 46 37 36 43 48 47 40 43 39 45 39 29 32 43 41 37 36 40 47 52 48 45 40 42 47 47 46 48 52 49 52 41 33 34 42 39 36 31 40 31 27 27 20 23 19 21 18 11 11 11 9 4 353 342 345 339 329 333 324 312 292 285 285 275 270 250 240
121 90 77 5 39 45 36 73 95 51 264 248 211 203 177 290 262 209 155 217 174 136 126 137 126 111 83 75 74 64 62 40 40 42 39 46 40 51 43 52 44 36 32 40 45 45 42 46 49 56 48 48 45 47 50 51 50 49 53 50 50 44 34 35 36 33 29 32 33 29 28 24 27 25 22 21 22 12 9 11 9 4 5 2 351 348 338 332 322 322 308 303 286 268 272 266 265
110 86 115 30 333 11 32 341 44 126 269 263 227 189 164 194 289 294 279 328 193 163 165 162 155 148 134 101 86 72 58 72 62 57 44 32 44 42 45 53 46 42 44 47 50 50 50 50 51 60 47 43 44 45 51 51 52 52 55 54 54 49 46 44 42 38 29 34 30 28 19 24 20 20 22 20 18 14 13 8 7 8 8 5 3 347 342 338 329 331 324 315 301 287 285 281 270
83 83 49 101 261 32 302 25 289 208 225 263 133 119 50 245 223 298 333 341 334 122 155 156 150 146 134 126 108 97 94 86 79 73 71 52 51 54 57 58 54 46 45 45 47 50 50 50 49 59 47 39 43 45 52 51 52 49 49 51 51 49 49 48 46 44 33 36 30 30 26 25 15 18 12 12 6 6 9 13 11 9 4 0 354 359 347 345 342 334 328 323 313 303 289 280 276
116 145 137 105 223 207 255 262 237 303 289 270 150 200 269 251 296 13 324 339 334 105 113 124 134 138 140 138 130 116 98 78 92 84 76 73 59 68 73 73 63 53 48 49 50 53 51 53 50 59 52 42 42 48 48 52 50 50 49 53 54 52 53 49 45 44 31 36 33 34 33 27 21 18 4 8 353 354 2 3 4 4 4 358 357 353 351 344 344 338 327 323 315 307 309 291 276
203 131 152 182 146 155 219 204 215 228 222 285 269 49 228 141 239 333 355 342 46 83 100 104 107 120 132 135 133 136 128 141 135 121 115 107 96 84 82 78 73 66 59 55 54 56 58 55 53 57 55 41 46 46 45 48 45 41 43 47 50 49 52 54 51 53 46 39 29 34 27 20 22 2 3 343 352 358 356 357 358 357 354 353 352 350 348 344 345 342 336 322 314 307 307 304 291
175 159 77 95 230 135 199 204 158 246 317 321 212 199 207 148 287 279 18 39 57 77 106 119 123 132 134 137 153 162 161 156 159 132 108 99 105 96 86 79 82 81 71 68 64 62 62 61 62 63 64 56 53 52 49 51 47 46 46 48 46 50 48 50 47 41 42 49 38 41 25 21 12 357 347 349 345 353 349 350 350 348 343 344 344 343 342 343 339 342 332 332 319 312 312 307 296
212 103 199 210 178 112 56 357 53 73 51 254 147 308 304 232 236 29 24 77 70 90 106 123 141 156 153 163 169 175 174 158 158 133 128 115 90 83 78 76 71 69 65 61 61 59 67 62 58 56 54 54 51 50 53 48 47 45 39 45 36 40 42 42 37 32 33 29 39 29 24 358 343 356 340 329 327 331 333 336 337 335 335 334 334 336 335 333 334 329 326 325 319 317 317 298 295
101 174 232 160 110 114 127 217 326 70 194 267 96 208 264 135 285 115 131 130 189 180 171 162 171 174 173 191 182 182 178 174 169 156 134 127 116 97 88 79 80 81 75 64 60 61 64 68 62 59 49 48 40 43 41 38 33 34 26 23 25 25 27 25 23 15 12 23 24 26 14 7 359 344 345 335 334 329 323 314 314 316 313 315 316 318 322 323 329 325 315 304 291 305 307 303 292
146 194 212 114 260 255 322 86 262 262 256 266 287 215 239 187 222 129 236 195 201 193 191 182 192 198 194 189 198 194 179 161 152 149 139 133 119 105 107 104 92 88 89 87 74 67 61 60 62 68 63 59 52 45 43 36 39 33 25 14 16 7 3 6 1 2 358 3 4 2 360 352 340 339 341 340 339 337 336 334 333 329 326 320 305 299 302 307 313 314 313 312 309 308 300 290 285
33 41 53 296 103 173 138 204 191 134 267 315 287 342 264 198 206 182 205 203 184 175 189 204 195 192 186 189 190 187 179 173 166 160 156 141 132 128 120 117 108 92 83 81 86 68 63 60 61 54 48 38 35 32 32 30 16 30 6 8 359 1 354 351 345 358 357 357 351 348 344 345 343 337 338 337 336 332 331 328 326 325 324 324 324 321 318 309 304 293 294 302 300 304 300 294 293
153 135 276 315 14 226 105 351 141 185 192 210 272 289 272 264 200 187 211 196 182 178 189 189 190 196 201 197 186 183 182 173 174 166 158 153 150 151 146 151 127 89 90 100 100 105 93 67 68 63 62 31 30 12 21 5 10 1 14 357 348 348 346 340 345 349 349 339 338 338 335 330 331 335 336 334 333 330 329 327 325 323 321 318 317 315 317 317 316 311 307 297 296 296 292 288 285
167 172 202 181 142 213 248 260 75 127 183 236 230 258 273 252 89 235 253 218 168 192 165 158 192 205 200 198 198 185 178 176 169 176 168 167 169 162 155 109 99 108 107 95 91 96 66 58 30 26 36 36 46 328 306 300 339 358 351 336 342 340 346 345 347 340 342 338 336 338 333 338 335 326 335 326 323 321 321 321 320 316 316 315 312 308 308 308 306 309 307 308 306 302 297 292 289